When you browse on this site, cookies collect data to enhance your experience and personalize the content and advertising you see.
Visit our Privacy Policy to learn more. By continuing to use the site, you agree to this use of cookies and data.
  • în România
  • Lista ţărilor
  • Pe 7 zile
  • Temperatura apei
  • Hartă satelitară
  • Meteo pe hartă
  • Widget-uri
  • user-avatar
    Intrare

    Meteo pe oră la Brčko

    Astăzi, 22 Mai, Miercuri

    Timp Temperatura Precipitaţii Vânt Presiune Umiditate
    00:00 +12°C° 0 mm 2 m/s 751 mmHg 87%
    01:00 +12°C° 0 mm 2 m/s 750 mmHg 87%
    02:00 +12°C° 0 mm 2 m/s 751 mmHg 87%
    03:00 +12°C° 0 mm 2 m/s 751 mmHg 87%
    04:00 +12°C° 0 mm 2 m/s 751 mmHg 87%
    05:00 +13°C° 0.1 mm 3 m/s 751 mmHg 85%
    06:00 +14°C° 0.1 mm 3 m/s 751 mmHg 82%
    07:00 +17°C° 0 mm 4 m/s 751 mmHg 78%
    08:00 +18°C° 0.2 mm 4 m/s 751 mmHg 75%
    09:00 +19°C° 0.2 mm 4 m/s 751 mmHg 73%
    10:00 +20°C° 0.2 mm 5 m/s 751 mmHg 70%
    11:00 +21°C° 0.8 mm 5 m/s 751 mmHg 70%
    12:00 +21°C° 0.8 mm 5 m/s 751 mmHg 71%
    13:00 +22°C° 0.8 mm 5 m/s 751 mmHg 71%
    14:00 +22°C° 0.8 mm 5 m/s 751 mmHg 73%
    15:00 +21°C° 0.8 mm 5 m/s 751 mmHg 75%
    16:00 +21°C° 0.8 mm 4 m/s 751 mmHg 77%
    17:00 +20°C° 1.2 mm 4 m/s 751 mmHg 80%
    18:00 +19°C° 1.2 mm 3 m/s 751 mmHg 84%
    19:00 +17°C° 1.2 mm 2 m/s 751 mmHg 87%
    20:00 +16°C° 0.4 mm 2 m/s 752 mmHg 88%
    21:00 +15°C° 0.4 mm 1 m/s 752 mmHg 90%
    22:00 +14°C° 0.4 mm 1 m/s 753 mmHg 92%
    23:00 +14°C° 0 mm 1 m/s 753 mmHg 92%

    Mâine, 23 Mai, Joi

    Timp Temperatura Precipitaţii Vânt Presiune Umiditate
    00:00 +14°C° 0 mm 1 m/s 753 mmHg 92%
    01:00 +13°C° 0 mm 1 m/s 753 mmHg 92%
    02:00 +13°C° 0 mm 1 m/s 753 mmHg 92%
    03:00 +13°C° 0 mm 2 m/s 753 mmHg 92%
    04:00 +12°C° 0 mm 2 m/s 753 mmHg 92%
    05:00 +14°C° 0 mm 2 m/s 753 mmHg 89%
    06:00 +15°C° 0 mm 2 m/s 754 mmHg 87%
    07:00 +17°C° 0 mm 2 m/s 754 mmHg 84%
    08:00 +18°C° 0.2 mm 2 m/s 754 mmHg 79%
    09:00 +19°C° 0.2 mm 2 m/s 754 mmHg 74%
    10:00 +20°C° 0.2 mm 3 m/s 754 mmHg 70%
    11:00 +20°C° 0.2 mm 3 m/s 753 mmHg 68%
    12:00 +21°C° 0.2 mm 3 m/s 753 mmHg 66%
    13:00 +21°C° 0.2 mm 4 m/s 753 mmHg 64%
    14:00 +21°C° 0 mm 4 m/s 753 mmHg 65%
    15:00 +20°C° 0 mm 3 m/s 752 mmHg 67%
    16:00 +20°C° 0 mm 3 m/s 752 mmHg 68%
    17:00 +19°C° 0.1 mm 3 m/s 752 mmHg 74%
    18:00 +18°C° 0.1 mm 2 m/s 752 mmHg 80%
    19:00 +16°C° 0.1 mm 2 m/s 752 mmHg 86%
    20:00 +15°C° 0 mm 2 m/s 753 mmHg 88%
    21:00 +14°C° 0 mm 2 m/s 753 mmHg 90%
    22:00 +14°C° 0 mm 2 m/s 753 mmHg 92%
    23:00 +13°C° 0 mm 2 m/s 753 mmHg 92%

    Poimâine, 24 Mai, Vineri

    Timp Temperatura Precipitaţii Vânt Presiune Umiditate
    00:00 +13°C° 0 mm 2 m/s 753 mmHg 93%
    01:00 +12°C° 0 mm 2 m/s 753 mmHg 94%
    02:00 +12°C° 0 mm 2 m/s 753 mmHg 94%
    03:00 +10°C° 0 mm 2 m/s 753 mmHg 94%
    04:00 +10°C° 0 mm 2 m/s 752 mmHg 94%
    05:00 +12°C° 0 mm 3 m/s 753 mmHg 89%
    06:00 +13°C° 0 mm 3 m/s 753 mmHg 84%
    07:00 +14°C° 0 mm 4 m/s 753 mmHg 79%
    08:00 +17°C° 0 mm 4 m/s 752 mmHg 75%
    09:00 +18°C° 0 mm 4 m/s 752 mmHg 70%
    10:00 +19°C° 0 mm 4 m/s 752 mmHg 66%
    11:00 +20°C° 0.2 mm 4 m/s 752 mmHg 65%
    12:00 +20°C° 0.2 mm 4 m/s 751 mmHg 64%
    13:00 +21°C° 0.2 mm 4 m/s 751 mmHg 64%
    14:00 +21°C° 0.3 mm 4 m/s 750 mmHg 67%
    15:00 +20°C° 0.3 mm 4 m/s 750 mmHg 69%
    16:00 +20°C° 0.3 mm 3 m/s 750 mmHg 72%
    17:00 +19°C° 0.2 mm 3 m/s 750 mmHg 76%
    18:00 +18°C° 0.2 mm 2 m/s 750 mmHg 80%
    19:00 +18°C° 0.2 mm 1 m/s 750 mmHg 84%
    20:00 +16°C° 0 mm 1 m/s 750 mmHg 85%
    21:00 +15°C° 0 mm 2 m/s 751 mmHg 86%
    22:00 +14°C° 0 mm 2 m/s 751 mmHg 87%
    23:00 +14°C° 0 mm 2 m/s 751 mmHg 88%

    25 Mai, Sâmbătă

    Timp Temperatura Precipitaţii Vânt Presiune Umiditate
    00:00 +13°C° 0 mm 2 m/s 751 mmHg 89%
    01:00 +13°C° 0 mm 2 m/s 751 mmHg 90%
    02:00 +12°C° 0 mm 2 m/s 751 mmHg 90%
    03:00 +12°C° 0 mm 2 m/s 751 mmHg 91%
    04:00 +12°C° 0 mm 2 m/s 751 mmHg 91%
    05:00 +13°C° 0 mm 2 m/s 751 mmHg 87%
    06:00 +15°C° 0 mm 2 m/s 752 mmHg 83%
    07:00 +16°C° 0 mm 2 m/s 752 mmHg 80%
    08:00 +18°C° 0 mm 2 m/s 752 mmHg 73%
    09:00 +20°C° 0 mm 2 m/s 752 mmHg 67%
    10:00 +21°C° 0 mm 2 m/s 752 mmHg 61%
    11:00 +23°C° 0 mm 2 m/s 752 mmHg 59%
    12:00 +24°C° 0 mm 3 m/s 751 mmHg 57%
    13:00 +25°C° 0 mm 3 m/s 751 mmHg 55%
    14:00 +25°C° 0 mm 3 m/s 751 mmHg 55%
    15:00 +25°C° 0 mm 2 m/s 751 mmHg 56%
    16:00 +25°C° 0 mm 2 m/s 750 mmHg 57%
    17:00 +23°C° 0 mm 2 m/s 751 mmHg 62%
    18:00 +21°C° 0 mm 1 m/s 751 mmHg 68%
    19:00 +17°C° 0 mm 0 m/s 751 mmHg 73%
    20:00 +18°C° 0 mm 1 m/s 751 mmHg 76%
    21:00 +18°C° 0 mm 1 m/s 752 mmHg 78%
    22:00 +16°C° 0 mm 1 m/s 752 mmHg 80%
    23:00 +15°C° 0 mm 1 m/s 752 mmHg 82%

    26 Mai, Duminică

    Timp Temperatura Precipitaţii Vânt Presiune Umiditate
    00:00 +15°C° 0 mm 1 m/s 752 mmHg 83%
    01:00 +14°C° 0 mm 1 m/s 752 mmHg 85%
    02:00 +14°C° 0 mm 1 m/s 752 mmHg 86%
    03:00 +13°C° 0 mm 1 m/s 751 mmHg 87%
    04:00 +13°C° 0 mm 1 m/s 751 mmHg 88%
    05:00 +15°C° 0 mm 1 m/s 751 mmHg 83%
    06:00 +18°C° 0 mm 1 m/s 752 mmHg 77%
    07:00 +20°C° 0 mm 1 m/s 752 mmHg 72%
    08:00 +22°C° 0 mm 1 m/s 752 mmHg 67%
    09:00 +23°C° 0 mm 1 m/s 751 mmHg 62%
    10:00 +25°C° 0 mm 1 m/s 751 mmHg 57%
    11:00 +26°C° 0 mm 1 m/s 751 mmHg 54%
    12:00 +26°C° 0 mm 1 m/s 751 mmHg 52%
    13:00 +27°C° 0 mm 1 m/s 750 mmHg 50%
    14:00 +27°C° 0 mm 1 m/s 750 mmHg 51%
    15:00 +27°C° 0 mm 1 m/s 750 mmHg 52%
    16:00 +27°C° 0 mm 1 m/s 750 mmHg 53%
    17:00 +25°C° 0.1 mm 1 m/s 750 mmHg 59%
    18:00 +23°C° 0.1 mm 1 m/s 750 mmHg 65%
    19:00 +22°C° 0.1 mm 1 m/s 750 mmHg 72%
    20:00 +21°C° 0.1 mm 1 m/s 750 mmHg 73%
    21:00 +20°C° 0.1 mm 1 m/s 750 mmHg 75%
    22:00 +17°C° 0.1 mm 0 m/s 751 mmHg 76%
    23:00 +17°C° 0.2 mm 0 m/s 750 mmHg 78%

    27 Mai, Luni

    Timp Temperatura Precipitaţii Vânt Presiune Umiditate
    00:00 +17°C° 0.2 mm 0 m/s 750 mmHg 80%
    01:00 +18°C° 0.2 mm 1 m/s 750 mmHg 82%
    02:00 +16°C° 0.2 mm 0 m/s 750 mmHg 82%
    03:00 +16°C° 0.2 mm 0 m/s 750 mmHg 82%
    04:00 +16°C° 0.2 mm 0 m/s 750 mmHg 83%
    05:00 +17°C° 0.2 mm 0 m/s 750 mmHg 82%
    06:00 +18°C° 0.2 mm 0 m/s 750 mmHg 81%
    07:00 +19°C° 0.2 mm 0 m/s 750 mmHg 80%
    08:00 +20°C° 0.5 mm 0 m/s 749 mmHg 79%
    09:00 +22°C° 0.5 mm 1 m/s 749 mmHg 77%
    10:00 +23°C° 0.5 mm 1 m/s 749 mmHg 75%
    11:00 +23°C° 0.7 mm 1 m/s 749 mmHg 77%
    12:00 +23°C° 0.7 mm 1 m/s 749 mmHg 78%
    13:00 +23°C° 0.7 mm 1 m/s 748 mmHg 79%
    14:00 +23°C° 0.4 mm 1 m/s 748 mmHg 76%
    15:00 +24°C° 0.4 mm 1 m/s 747 mmHg 72%
    16:00 +25°C° 0.4 mm 1 m/s 747 mmHg 69%
    17:00 +23°C° 0.8 mm 1 m/s 747 mmHg 73%
    18:00 +22°C° 0.8 mm 1 m/s 747 mmHg 77%
    19:00 +21°C° 0.8 mm 1 m/s 746 mmHg 81%
    20:00 +21°C° 0.3 mm 1 m/s 746 mmHg 84%
    21:00 +20°C° 0.3 mm 1 m/s 746 mmHg 86%
    22:00 +19°C° 0.3 mm 1 m/s 746 mmHg 89%
    23:00 +19°C° 0.1 mm 1 m/s 746 mmHg 90%
    Arată mai mult